Regional Weather Roundup
Issued by NWS

Home | Current Version | Previous Version | Graphics & Text | Print | Product List | Glossary On
Versions: 1 2 3 4 5 6 7 8 9 10 11 12 13 14 15 16 17 18 19 20 21 22 23 24 25 26 27 28 29 30 31 32 33 34 35 36 37 38 39 40 41 42 43 44 45 46 47 48 49 50
000
ASUS43 KDMX 041407
RWRIA

WEATHER ROUNDUP FOR IOWA
NATIONAL WEATHER SERVICE DES MOINES IA
900 AM CDT TUE AUG 04 2015

NOTE: "FAIR" INDICATES FEW OR NO CLOUDS BELOW 12,000 FEET WITH NO
SIGNIFICANT WEATHER AND/OR OBSTRUCTIONS TO VISIBILITY.

* - THESE STATIONS ARE NOT NWS STATIONS...THUS NOT UNDER NWS
QUALITY CONTROL.  THEY ALSO DO NOT REPORT WEATHER SUCH
AS PRECIPITATION OR FOG.

IAZ001>003-012>014-020>022-031>034-043>046-041500-
   NORTHWEST IOWA

CITY           SKY/WX    TMP DP  RH WIND       PRES   REMARKS
CARROLL *      SUNNY     66  63  88 CALM      30.05R
CHEROKEE *     CLOUDY    64  61  88 CALM      30.05R
DENISON *      PTSUNNY   66  63  88 CALM      30.04R
LE MARS *      CLOUDY    64  63  94 CALM      30.04S
ORANGE CITY *  SUNNY     64  59  82 CALM      30.05R
SHELDON *      SUNNY     63  61  94 CALM      30.04S
SIOUX CITY     CLOUDY    68  61  78 E6        30.03S THUNDER
SPENCER        CLOUDY    65  56  72 CALM      30.06S
STORM LAKE *   SUNNY     66  61  82 S5        30.07R
$$

IAZ055>058-069>071-079>083-090>094-041500-
   SOUTHWEST IOWA

CITY           SKY/WX    TMP DP  RH WIND       PRES   REMARKS
ATLANTIC *     MOSUNNY   66  64  94 N5        30.04S
AUDUBON *      MOSUNNY   68  64  88 CALM      30.06R
CLARINDA *     LGT RAIN  66  66 100 S7        30.04F
COUNCIL BLFS * LGT RAIN  64  63  94 N3        30.05R
CRESTON *      CLOUDY    64  61  88 SW7       30.10R
HARLAN  *      MOSUNNY   68  68 100 N3        30.08R
LAMONI         TSTM      66  63  90 E8        30.02F FOG
RED OAK *      DRIZZLE   64  64 100 N5        30.04R
SHENANDOAH *   CLOUDY    66  66 100 E3        30.03R
$$

IAZ047>049-059>061-072>074-084-041500-
   CENTRAL IOWA

CITY           SKY/WX    TMP DP  RH WIND       PRES   REMARKS
AMES           CLOUDY    67  62  84 CALM      30.04R
ANKENY *       SUNNY     68  63  83 CALM      30.04R
CHARITON *     PTSUNNY   68  61  77 CALM      30.03R
DES MOINES     CLOUDY    72  61  68 N5        30.03R
GRINNELL*      PTSUNNY   68  63  83 CALM      30.04R
KNOXVILLE *    MOSUNNY   70  61  73 CALM      30.02R
MARSHALLTOWN   PTSUNNY   66  62  87 CALM      30.03R
PELLA *        CLOUDY    72  66  83 CALM      30.04R
PERRY *          N/A     68  64  88 CALM      30.04S
$$

IAZ004>006-015-016-023>025-035-036-041500-
   NORTH CENTRAL IOWA

CITY           SKY/WX    TMP DP  RH WIND       PRES   REMARKS
ALGONA *       SUNNY     64  59  82 CALM      30.06S
CLARION *      SUNNY     66  59  77 NE5       30.05R
ESTHERVILLE    CLOUDY    63  57  81 CALM      30.06R
FORT DODGE *   CLOUDY    66  59  77 NE6       30.06R
MASON CITY     PTSUNNY   67  59  75 W3        30.06R
FOREST CITY *  SUNNY     64  61  88 CALM      30.05R
IOWA FALLS *     N/A     68  59  73 N5        30.04S
$$

IAZ007>011-017>019-026>030-037>042-050>054-066-041500-
   NORTHEAST IOWA

CITY           SKY/WX    TMP DP  RH WIND       PRES   REMARKS
CEDAR RAPIDS   PTSUNNY   67  63  87 NW3       30.01R
CHARLES CITY * SUNNY     64  61  88 N5        30.05R
CLINTON *      MOSUNNY   66  61  82 NW5       30.03R
DECORAH *      SUNNY     63  55  77 CALM      30.03R
DUBUQUE        MOSUNNY   69  56  62 N8        30.02R
MONTICELLO *   SUNNY     68  61  77 VRB5      30.02R
OELWEIN *      SUNNY     66  59  77 N6        30.04R
WATERLOO       PTSUNNY   66  59  78 N6        30.02R
$$

IAZ064-065-067-068-078-041500-
   EAST CENTRAL IOWA

CITY           SKY/WX    TMP DP  RH WIND       PRES   REMARKS
DAVENPORT      PTSUNNY   69  62  78 W3        30.01R
IOWA CITY      PTSUNNY   68  61  78 W3        30.02R
MT. PLEASANT * PTSUNNY   72  57  60 CALM      30.02R
MUSCATINE *    SUNNY     70  59  68 CALM      30.02R
QUAD CITIES    PTSUNNY   72  62  71 W3        30.01R
$$

IAZ062-063-075>077-085>089-095>099-041500-
   SOUTHEAST IOWA

CITY           SKY/WX    TMP DP  RH WIND       PRES   REMARKS
BURLINGTON     PTSUNNY   71  63  75 CALM      30.01R
FAIRFIELD *    PTSUNNY   70  61  73 CALM      30.02R
FORT MADISON * MOSUNNY   72  64  78 CALM      30.02R
KEOKUK *       MOSUNNY   72  64  78 CALM      30.01R
OSKALOOSA *      N/A     70  63  78 CALM      30.03R
CENTERVILLE *  MOSUNNY   68  64  88 CALM      30.03R
OTTUMWA        CLOUDY    70  63  78 CALM      30.01R
WASHINGTON *   SUNNY     70  63  78 CALM      30.03R
$$

ABBREVIATIONS USED IN REMARKS
   TC - TEMPERATURES IN CELSIUS
  WCI - WIND CHILL INDEX
   HX - HEAT INDEX
  VSB - VISIBILITY
$$




USA.gov is the U.S. government's official web portal to all federal, state and local government web resources and services.